Manhattan, KS

10:51 AM CDT on July 21, 2017 (GMT -0500)
Manhattan Regional

Weather History for KMHK - September, 2013

Change the Weather History Date:

Monday, September 23, 2013

  Actual Average Record
Temperature  
Mean Temperature 66 °F 65 °F  
Max Temperature 80 °F 78 °F 90 °F (2016)
Min Temperature 52 °F 52 °F 37 °F (2012)
Degree Days  
Heating Degree Days 0 4  
Month to date heating degree days 6 34  
Since 1 July heating degree days 9 37  
Cooling Degree Days 1 3  
Month to date cooling degree days 225 135  
Year to date cooling degree days 1453 1318  
Growing Degree Days 16 (Base 50)    
Moisture  
Dew Point 51 °F    
Average Humidity 60    
Maximum Humidity 83    
Minimum Humidity 37    
Precipitation  
Precipitation 0.00 in 0.09 in 2.95 in (2005)
Month to date precipitation 2.86 2.57  
Year to date precipitation 24.08 27.11  
Sea Level Pressure  
Sea Level Pressure 29.76 in    
Wind  
Wind Speed 13 mph (SSE)    
Max Wind Speed 25 mph    
Max Gust Speed 33 mph    
Visibility 10 miles    
Events      
T = Trace of Precipitation, MM = Missing Value Source: NWS Daily Summary

Daily Weather History Graph

Daily Weather History Graph

Search for Another Location

Airport or City:

Trip Planner

Search our weather history database for the weather conditions in past years. The results will help you decide how hot, cold, wet, or windy it might be!

Date:

Astronomy

Sep. 23, 2013 Rise Set
Actual Time 7:15 AM CDT 7:21 PM CDT
Civil Twilight 6:48 AM CDT 7:48 PM CDT
Nautical Twilight 6:17 AM CDT 8:19 PM CDT
Astronomical Twilight 5:45 AM CDT 8:51 PM CDT
Moon 9:56 PM CDT (9/23) 11:33 AM CDT (9/23)
Length of Visible Light 12h 59m
Length of Day
12h 06m
Waning Gibbous, 81% of the Moon is Illuminated
Sep 23
Waning Gibbous
Sep 26
Last Quarter
Oct 4
New
Oct 11
First Quarter
Oct 18
Full

Hourly Weather History & Observations

Time (CDT) Temp. Dew Point Humidity Pressure Visibility Wind Dir Wind Speed Gust Speed Precip Events Conditions
12:52 AM 55.0 °F 48.0 °F 77% 29.82 in 10.0 mi Calm Calm - N/A   Clear
1:52 AM 53.1 °F 48.0 °F 83% 29.82 in 10.0 mi Calm Calm - N/A   Clear
2:52 AM 54.0 °F 48.0 °F 80% 29.81 in 10.0 mi Calm Calm - N/A   Clear
3:52 AM 55.9 °F 48.9 °F 77% 29.80 in 10.0 mi NE 3.5 mph - N/A   Clear
4:52 AM 55.0 °F 48.0 °F 77% 29.80 in 10.0 mi Calm Calm - N/A   Clear
5:52 AM 54.0 °F 48.9 °F 83% 29.81 in 10.0 mi Calm Calm - N/A   Clear
6:52 AM 57.0 °F 48.9 °F 74% 29.83 in 10.0 mi South 3.5 mph - N/A   Clear
7:52 AM 57.9 °F 51.1 °F 78% 29.84 in 10.0 mi South 6.9 mph - N/A   Clear
8:52 AM 63.0 °F 52.0 °F 67% 29.83 in 10.0 mi South 16.1 mph - N/A   Clear
9:52 AM 66.9 °F 52.0 °F 59% 29.82 in 10.0 mi South 21.9 mph 27.6 mph N/A   Clear
10:52 AM 72.0 °F 53.1 °F 51% 29.81 in 10.0 mi South 17.3 mph 27.6 mph N/A   Clear
11:52 AM 75.0 °F 52.0 °F 44% 29.79 in 10.0 mi SSE 18.4 mph 27.6 mph N/A   Clear
12:52 PM 75.9 °F 51.1 °F 42% 29.78 in 10.0 mi South 15.0 mph 29.9 mph N/A   Clear
1:52 PM 78.1 °F 50.0 °F 37% 29.75 in 10.0 mi South 24.2 mph 31.1 mph N/A   Clear
2:52 PM 79.0 °F 50.0 °F 36% 29.72 in 10.0 mi SSE 18.4 mph 28.8 mph N/A   Clear
3:52 PM 79.0 °F 50.0 °F 36% 29.71 in 10.0 mi South 18.4 mph 31.1 mph N/A   Clear
4:52 PM 77.0 °F 51.1 °F 40% 29.70 in 10.0 mi SSE 18.4 mph 24.2 mph N/A   Partly Cloudy
5:52 PM 75.9 °F 50.0 °F 40% 29.71 in 10.0 mi South 17.3 mph 27.6 mph N/A   Overcast
6:52 PM 75.0 °F 52.0 °F 44% 29.70 in 10.0 mi South 18.4 mph 24.2 mph N/A   Partly Cloudy
7:52 PM 72.0 °F 53.1 °F 51% 29.69 in 10.0 mi SSE 13.8 mph 21.9 mph N/A   Clear
8:52 PM 71.1 °F 54.0 °F 55% 29.69 in 10.0 mi SSE 15.0 mph 25.3 mph N/A   Clear
9:52 PM 71.1 °F 54.0 °F 55% 29.70 in 10.0 mi SSE 18.4 mph 28.8 mph N/A   Overcast
10:52 PM 71.1 °F 54.0 °F 55% 29.70 in 10.0 mi South 17.3 mph 28.8 mph N/A   Overcast
11:52 PM 70.0 °F 53.1 °F 55% 29.69 in 10.0 mi South 15.0 mph 24.2 mph N/A   Overcast